#timestamp,LO_Frequency,Hit,StdDev 
1542110415.3,286046994.2,N
1542110435.2,286046993.4,N
1542110455.0,286046995.5,N
1542110455.9,286046995.5,N
1542110475.7,286046993.3,N
1542110495.6,286046994.6,N
1542110515.4,286046997.9,N
1542110535.3,286046999.3,N
1542110555.1,286046996.9,N
1542110556.0,286046996.9,N
1542110575.8,286046994.9,N
1542110595.7,286046997.1,N
1542110615.5,286046995.5,N
1542110635.4,286046996.0,N
1542110655.2,286046993.5,N
1542110675.0,286046997.9,N
1542110675.9,286046997.9,N
1542110695.8,286046995.8,N
1542110715.6,286046996.1,N
1542110735.4,286046996.0,N
1542110755.3,286046994.9,N
1542110775.1,286046997.6,N
1542110795.9,286046995.4,N
1542110815.7,286046996.9,N
1542110835.5,286046999.3,N
1542110855.4,286047000.8,N
1542110875.2,286047000.6,N
1542110895.1,286046998.6,N
1542110896.0,286046998.6,N
1542110915.8,286046998.1,N
1542110935.6,286046998.5,N
1542110955.5,286046998.2,N
1542110975.3,286047001.2,N
1542110995.1,286046999.5,N
1542111015.9,286046999.4,N
1542111035.7,286046996.5,N
1542111055.6,286046997.7,N
1542111075.4,286046997.1,N
1542111095.2,286046999.5,N
1542111115.1,286046996.9,N
1542111116.0,286046996.9,N
1542111135.8,286046997.4,N
1542111155.7,286046995.0,N
1542111175.5,286046995.4,N
1542111195.3,286046996.5,N
1542111215.2,286046996.9,N
1542111235.0,286046997.4,N
1542111235.9,286046997.4,N
1542111255.8,286046996.5,N
1542111275.6,286046998.6,N
1542111295.4,286047000.8,N
1542111315.3,286046999.6,N
1542111335.1,286046996.7,N
1542111355.8,286046997.1,N
1542111375.7,286046997.6,N
1542111395.5,286046996.5,N
1542111415.3,286046998.0,N
1542111435.2,286046995.1,Y
1542111455.0,286046999.6,P
1542111455.9,286046999.6,N
1542111475.8,286046998.1,N
1542111495.6,286046998.8,N
1542111515.4,286046999.3,N
1542111535.3,286046998.3,N
1542111555.1,286046996.7,Y
1542111575.9,286046999.0,P
1542111595.7,286047000.5,P
1542111615.5,286046999.4,N
1542111635.4,286046999.2,N
1542111655.2,286046999.1,N
1542111675.0,286046996.6,Y
1542111676.0,286046996.6,P
1542111695.8,286046999.0,N
1542111715.6,286046999.0,N
1542111735.5,286046998.4,N
1542111755.3,286046999.2,N
1542111775.1,286046999.3,N
1542111795.9,286046999.5,N
1542111815.7,286046995.0,Y
1542111835.6,286046997.8,P
1542111855.4,286046997.6,P
1542111875.2,286046997.0,P
1542111895.1,286046997.5,Y
1542111896.0,286046997.5,P
1542111915.8,286046998.1,P
1542111935.7,286046999.1,P
1542111955.5,286046999.6,N
1542111975.3,286046999.0,N
1542111995.2,286047001.2,N
1542112015.9,286047002.8,N
1542112035.7,286047004.3,N
1542112055.6,286047003.8,N
1542112075.4,286047001.5,N
1542112095.3,286047001.8,N
1542112115.1,286047000.2,N
1542112116.0,286047000.2,N
1542112135.8,286047002.0,N
1542112155.7,286047004.4,N
1542112175.5,286047002.5,N
1542112195.3,286047001.7,N
1542112215.2,286047003.2,N
1542112235.0,286047004.2,N
1542112235.9,286047004.2,N
1542112255.8,286047003.5,N
1542112275.6,286047004.4,N
1542112295.4,286047001.6,N
1542112315.3,286047001.3,N
1542112335.1,286047002.4,N
1542112355.8,286047000.2,N
1542112375.7,286047000.2,N
1542112395.5,286047001.8,N
1542112415.3,286047001.9,N
1542112435.2,286047002.4,N
1542112455.0,286047000.8,N
1542112455.9,286047000.8,N
1542112475.8,286046998.7,N
1542112495.6,286046996.7,N
1542112515.4,286046999.2,N
1542112535.3,286046999.0,N
1542112555.1,286046998.6,N
1542112575.8,286047000.9,N
1542112595.7,286046999.7,N
1542112615.5,286047002.4,N
1542112635.4,286047001.4,N
1542112655.2,286047001.9,N
1542112675.0,286047003.5,N
1542112675.9,286047003.5,N
1542112695.8,286047004.4,N
1542112715.6,286047001.3,N
1542112735.4,286047002.2,N
1542112755.3,286047002.6,N
1542112775.1,286047002.7,N
1542112795.9,286047000.1,N
1542112815.7,286046999.9,N
1542112835.5,286047000.8,N
1542112855.4,286047000.0,N
1542112875.2,286047000.7,N
1542112895.0,286047002.2,N
1542112895.9,286047002.2,N
1542112915.8,286046998.1,N
1542112935.6,286047002.4,N
1542112955.5,286046999.8,N
1542112975.3,286047000.5,N
1542112995.1,286046998.1,N
1542113015.9,286047002.5,N
1542113035.7,286047001.4,N
1542113055.5,286047004.0,N
1542113075.4,286047001.8,N
1542113095.2,286047001.7,N
1542113115.1,286047004.2,N
1542113116.0,286047004.2,N
1542113135.8,286047001.9,N
1542113155.6,286047002.1,N
1542113175.5,286047001.4,N
1542113195.3,286047004.1,N
1542113215.2,286047003.3,N
1542113235.9,286047003.8,N
1542113255.7,286047002.2,N
1542113275.6,286047002.3,N
1542113295.4,286047002.8,N
1542113315.2,286046998.2,N
1542113335.1,286046998.3,N
1542113336.0,286046998.3,N
1542113355.8,286047000.4,N
1542113375.7,286046998.6,N
1542113395.5,286046999.6,N
1542113415.3,286046998.9,N
1542113435.2,286046997.7,N
1542113455.9,286046997.3,N
1542113475.7,286046997.6,N
1542113495.6,286046997.2,N
1542113515.4,286046998.3,N
1542113535.2,286046999.2,N
1542113555.1,286046999.0,N
1542113556.0,286046999.0,N
1542113575.8,286046999.1,N
1542113595.7,286046999.6,N
1542113615.5,286046998.5,N
1542113635.3,286047001.0,N
1542113655.2,286046999.9,N
1542113675.0,286047001.8,N
1542113675.9,286047001.8,N
1542113695.8,286047001.9,N
1542113715.6,286047001.7,N
1542113735.4,286047003.5,N
1542113755.3,286047001.3,N
1542113775.1,286047006.0,Y
1542113795.8,286047003.0,P
1542113815.7,286047001.6,N
1542113835.5,286047003.7,N
1542113855.4,286047003.5,N
1542113875.2,286047004.2,N
1542113895.0,286047004.0,N
1542113895.9,286047004.0,N
1542113915.8,286047002.1,N
1542113935.6,286047004.4,Y
1542113955.4,286046999.1,P
1542113975.3,286046998.7,N
1542113995.1,286046998.3,N
